Tracking 17147 objects as of 3-July-2015
HD Live streaming from Space Station

RUBIN 2

Track RUBIN 2 now!
10-day predictions
RUBIN 2 is classified as:


NORAD ID: 27605
Int'l Code: 2002-058A
Perigee: 595.7 km
Apogee: 711.7 km
Inclination: 64.6 °
Period: 97.7 minutes
Semi major axis: 7024 km
RCS: 0.234 m2 (medium)
Launch date: December 20, 2002
Source: Germany (GER)
Your satellite tracking list
Your tracking list is empty





NASA's NSSDC Master Catalog

Two Line Element Set (TLE):
1 27605U 02058A   15184.45441150  .00000113  00000-0  37213-4 0  9993
2 27605 064.5550 130.1876 0082510 285.3529 182.3511 14.74555706674083

Source of the keplerian elements: AFSPC

N2YO: 403